{"data":{"norad_id":51960,"epoch":"2026-09-19T13:48:20.634912Z","epoch_age_seconds":136105,"freshness":"FRESH","line1":"1 51960U 22025E   26262.57523883 -.00003238  00000+0 -92674-4 0  9990","line2":"2 51960  53.1609 214.3727 0001187  94.9129 265.2008 15.31683032250545","mean_motion":15.31683032,"eccentricity":0.0001187,"inclination_deg":53.1609,"raan_deg":214.3727,"arg_perigee_deg":94.9129,"mean_anomaly_deg":265.2008,"bstar":-9.2674e-5,"rev_number":25054,"period_min":94.014229440129,"perigee_km":469.97760871433,"apogee_km":471.60354412097,"semimajor_km":6848.9275764176,"source":"CELESTRAK","updated_at":"2026-09-20T09:00:39.975843Z"}}